レモン彗星

C/2022 S4 ( Lemmon )

English version
Home page
Updated on September 27, 2024

---------------------------------------------------------------------

・ プロフィール

発見日 2022年9月19日
発見光度 20.6等
発見者 Mt. Lemmon

・ 写真集

・ 軌道要素

Epoch 2024 Oct. 17.0 TT = JDT 2460600.5
T 2024 July 18.75697 TT                                 Rudenko
q   2.7618368            (2000.0)            P               Q
z  +0.0007931      Peri.  268.55776     +0.14472301     -0.76067693
 +/-0.0000007      Node   220.17492     +0.26858087     -0.58531453
e   0.9978095      Incl.  101.22051     -0.95232325     -0.28067333
>From 711 observations 2022 Aug. 26-2024 Aug. 8, mean residual 0".6.

・ 星図

・ 光度変化

        m1 = 10.0 + 5 logΔ + 8.5 log r(t + 200)

        ※ 灰色の曲線は、m1 = 9.0 + 5 logΔ + 8.5 log r の光度曲線です。

---------------------------------------------------------------------

軌道要素はM.P.E.C. 2024-P125に掲載されたものです。
星図はステラナビゲータ Ver.10 (アストロアーツ) で作成したものです。
光度グラフはComet for Windowsで作成したものです。

---------------------------------------------------------------------

Copyright(C) Seiichi Yoshida (comet@aerith.net). All rights reserved.